Warsaw, IN

7:42 PM EDT on August 19, 2017 (GMT -0400)
Warsaw Municipal

Weather History for KASW - March, 2014

Change the Weather History Date:

Wednesday, March 12, 2014

  Actual Average Record
Temperature  
Mean Temperature 26 °F -  
Max Temperature 37 °F 44 °F 76 °F (1990)
Min Temperature 15 °F 26 °F 2 °F (1979)
Degree Days  
Heating Degree Days 39    
Moisture  
Dew Point 24 °F    
Average Humidity 84    
Maximum Humidity 100    
Minimum Humidity 64    
Precipitation  
Precipitation 0.22 in - - ()
Sea Level Pressure  
Sea Level Pressure 29.75 in    
Wind  
Wind Speed 13 mph (North)    
Max Wind Speed 22 mph    
Max Gust Speed 31 mph    
Visibility 8 miles    
Events Rain , Snow    
Averages and records for this station are not official NWS values.
T = Trace of Precipitation, MM = Missing Value Source: NWS Daily Summary

Daily Weather History Graph

Daily Weather History Graph

Search for Another Location

Airport or City:

Trip Planner

Search our weather history database for the weather conditions in past years. The results will help you decide how hot, cold, wet, or windy it might be!

Date:

Astronomy

Mar. 12, 2014 Rise Set
Actual Time 8:00 AM EDT 7:46 PM EDT
Civil Twilight 7:32 AM EDT 8:14 PM EDT
Nautical Twilight 7:00 AM EDT 8:46 PM EDT
Astronomical Twilight 6:28 AM EDT 9:18 PM EDT
Moon 4:14 PM EDT (3/12) 5:33 AM EDT (3/12)
Length of Visible Light 12h 41m
Length of Day
11h 46m
Waxing Gibbous, 85% of the Moon is Illuminated
Mar 12
Waxing Gibbous
Mar 16
Full
Mar 23
Last Quarter
Mar 30
New
Apr 7
First Quarter

Hourly Weather History & Observations

Time (EDT) Temp. Windchill Dew Point Humidity Pressure Visibility Wind Dir Wind Speed Gust Speed Precip Events Conditions
12:15 AM 37.4 °F 29.8 °F 33.8 °F 87% 29.66 in 10.0 mi NE 11.5 mph 18.4 mph N/A   Mostly Cloudy
12:35 AM 37.4 °F 30.8 °F 33.8 °F 87% 29.66 in 10.0 mi NE 9.2 mph - N/A   Overcast
12:55 AM 37.4 °F 28.9 °F 33.8 °F 87% 29.67 in 10.0 mi NNE 13.8 mph 18.4 mph N/A   Overcast
1:15 AM 37.4 °F 29.8 °F 33.8 °F 87% 29.66 in 10.0 mi NNE 11.5 mph - N/A   Overcast
1:35 AM 37.4 °F 29.3 °F 33.8 °F 87% 29.65 in 10.0 mi NE 12.7 mph 19.6 mph N/A   Overcast
1:55 AM 37.4 °F 28.5 °F 33.8 °F 87% 29.62 in 10.0 mi NE 15.0 mph 19.6 mph N/A   Overcast
2:15 AM 35.6 °F 26.6 °F 33.8 °F 93% 29.61 in 10.0 mi NE 13.8 mph 20.7 mph N/A   Overcast
2:35 AM 35.6 °F 27.1 °F 33.8 °F 93% 29.60 in 10.0 mi NE 12.7 mph 18.4 mph N/A   Overcast
2:55 AM 35.6 °F 27.1 °F 33.8 °F 93% 29.58 in 10.0 mi NE 12.7 mph 19.6 mph N/A   Overcast
3:15 AM 35.6 °F 26.6 °F 33.8 °F 93% 29.58 in 10.0 mi NE 13.8 mph 18.4 mph N/A   Overcast
3:35 AM 35.6 °F 26.2 °F 33.8 °F 93% 29.55 in 10.0 mi NE 15.0 mph 20.7 mph N/A   Overcast
3:55 AM 35.6 °F 26.2 °F 33.8 °F 93% 29.53 in 10.0 mi NE 15.0 mph 19.6 mph N/A   Overcast
4:15 AM 35.6 °F 29.2 °F 33.8 °F 93% 29.54 in 10.0 mi NE 8.1 mph - N/A Rain Light Rain
4:35 AM 33.8 °F 26.4 °F 32.0 °F 93% 29.55 in 3.0 mi NNE 9.2 mph 16.1 mph 0.04 in Rain Rain
4:55 AM 33.8 °F 27.0 °F 32.0 °F 93% 29.57 in 2.0 mi North 8.1 mph - 0.08 in Snow Light Snow
5:15 AM 32.0 °F 24.2 °F 32.0 °F 100% 29.56 in 1.2 mi NNE 9.2 mph - 0.01 in Snow Light Snow
5:35 AM 32.0 °F 22.5 °F 32.0 °F 100% 29.54 in 1.0 mi North 12.7 mph 18.4 mph 0.02 in Snow Snow
5:55 AM 32.0 °F 22.1 °F 32.0 °F 100% 29.54 in 0.5 mi NNE 13.8 mph - 0.04 in Snow Snow
6:15 AM 32.0 °F 21.2 °F 32.0 °F 100% 29.54 in - NNE 16.1 mph 23.0 mph 0.02 in   Overcast
6:35 AM 32.0 °F 21.2 °F 32.0 °F 100% 29.56 in - NNE 16.1 mph 23.0 mph 0.04 in   Overcast
6:55 AM 32.0 °F 21.2 °F 32.0 °F 100% 29.57 in - NNE 16.1 mph 27.6 mph 0.06 in   Mostly Cloudy
7:15 AM 32.0 °F 21.6 °F 30.2 °F 93% 29.58 in - NNE 15.0 mph 26.5 mph 0.01 in   Unknown
7:35 AM 32.0 °F 20.8 °F 30.2 °F 93% 29.57 in - NNE 17.3 mph 23.0 mph 0.02 in   Mostly Cloudy
7:55 AM 30.2 °F 19.3 °F 30.2 °F 100% 29.58 in - NNE 15.0 mph 26.5 mph 0.03 in   Overcast
8:15 AM 30.2 °F 18.5 °F 30.2 °F 100% 29.57 in - NNE 17.3 mph 20.7 mph 0.01 in   Overcast
8:35 AM 30.2 °F 19.3 °F 30.2 °F 100% 29.58 in - North 15.0 mph 20.7 mph 0.01 in   Overcast
8:55 AM 30.2 °F 19.3 °F 28.4 °F 93% 29.58 in - NNE 15.0 mph 26.5 mph 0.01 in   Overcast
9:15 AM 30.2 °F 19.3 °F 28.4 °F 93% 29.59 in 1.8 mi North 15.0 mph 20.7 mph N/A Snow Light Snow
9:35 AM 30.2 °F 19.8 °F 26.6 °F 86% 29.62 in 2.5 mi North 13.8 mph 20.7 mph N/A Snow Light Snow
9:55 AM 28.4 °F 17.5 °F 26.6 °F 93% 29.64 in 1.5 mi North 13.8 mph 21.9 mph N/A Snow Light Snow
10:15 AM 28.4 °F 19.1 °F 26.6 °F 93% 29.65 in 1.2 mi North 10.4 mph 20.7 mph N/A Snow Light Snow
10:35 AM 28.4 °F 18.0 °F 26.6 °F 93% 29.65 in 1.2 mi North 12.7 mph - N/A Snow Light Snow
10:55 AM 28.4 °F 19.1 °F 26.6 °F 93% 29.67 in 1.0 mi North 10.4 mph - N/A Snow Light Snow
11:15 AM 28.4 °F 17.0 °F 26.6 °F 93% 29.68 in 0.5 mi North 15.0 mph 18.4 mph N/A Snow Light Snow
11:35 AM 28.4 °F 17.5 °F 26.6 °F 93% 29.70 in 1.0 mi North 13.8 mph 19.6 mph N/A Snow Light Snow
11:55 AM 30.2 °F 20.8 °F 26.6 °F 86% 29.71 in 1.5 mi North 11.5 mph 20.7 mph N/A Snow Light Snow
12:15 PM 30.2 °F 19.8 °F 26.6 °F 86% 29.72 in 1.8 mi NNW 13.8 mph 19.6 mph N/A Snow Light Snow
12:35 PM 30.2 °F 19.8 °F 26.6 °F 86% 29.73 in 1.8 mi NNW 13.8 mph 21.9 mph N/A Snow Light Snow
12:55 PM 30.2 °F 18.9 °F 26.6 °F 86% 29.73 in 1.8 mi NNW 16.1 mph 19.6 mph N/A Snow Light Snow
1:15 PM 30.2 °F 19.3 °F 26.6 °F 86% 29.74 in 7.0 mi North 15.0 mph 24.2 mph N/A   Overcast
1:35 PM 30.2 °F 20.2 °F 24.8 °F 80% 29.76 in 10.0 mi North 12.7 mph 20.7 mph N/A   Overcast
1:55 PM 32.0 °F 22.1 °F 23.0 °F 69% 29.77 in 10.0 mi North 13.8 mph 20.7 mph N/A   Overcast
2:15 PM 32.0 °F 22.1 °F 24.8 °F 75% 29.78 in 10.0 mi NNW 13.8 mph 23.0 mph N/A   Overcast
2:35 PM 32.0 °F 22.1 °F 23.0 °F 69% 29.78 in 10.0 mi NNW 13.8 mph 25.3 mph N/A   Overcast
2:55 PM 32.0 °F 21.6 °F 23.0 °F 69% 29.79 in 10.0 mi NNW 15.0 mph 20.7 mph N/A   Scattered Clouds
3:15 PM 32.0 °F 23.0 °F 21.2 °F 64% 29.78 in 10.0 mi NNW 11.5 mph 18.4 mph N/A   Clear
3:35 PM 30.2 °F 18.5 °F 21.2 °F 69% 29.80 in 10.0 mi NW 17.3 mph 24.2 mph N/A   Clear
3:55 PM 30.2 °F 17.1 °F 21.2 °F 69% 29.81 in 5.0 mi NW 21.9 mph 27.6 mph N/A   Haze
4:15 PM 28.4 °F 15.1 °F 21.2 °F 74% 29.83 in 5.0 mi NW 20.7 mph 31.1 mph N/A   Haze
4:35 PM 28.4 °F 17.5 °F 19.4 °F 69% 29.85 in 10.0 mi NW 13.8 mph 26.5 mph N/A   Scattered Clouds
4:55 PM 26.6 °F 13.4 °F 19.4 °F 74% 29.86 in 10.0 mi NW 18.4 mph 28.8 mph N/A   Mostly Cloudy
5:15 PM 26.6 °F 12.7 °F 17.6 °F 69% 29.87 in 10.0 mi NW 20.7 mph 27.6 mph N/A   Mostly Cloudy
5:35 PM 24.8 °F 11.1 °F 17.6 °F 74% 29.88 in 10.0 mi NW 18.4 mph 25.3 mph N/A   Scattered Clouds
5:55 PM 24.8 °F 10.7 °F 17.6 °F 74% 29.90 in 10.0 mi NW 19.6 mph 24.2 mph N/A   Scattered Clouds
6:15 PM 23.0 °F 11.7 °F 15.8 °F 74% 29.91 in 10.0 mi NW 11.5 mph 24.2 mph N/A   Scattered Clouds
6:35 PM 23.0 °F 9.6 °F 14.0 °F 68% 29.93 in 10.0 mi NW 16.1 mph 20.7 mph N/A   Scattered Clouds
6:55 PM 23.0 °F 10.1 °F 14.0 °F 68% 29.94 in 10.0 mi NW 15.0 mph 23.0 mph N/A   Mostly Cloudy
7:15 PM 21.2 °F 7.8 °F 14.0 °F 74% 29.96 in 10.0 mi NW 15.0 mph - N/A   Overcast
7:35 PM 19.4 °F 5.0 °F 12.2 °F 74% 29.97 in 10.0 mi NNW 16.1 mph 21.9 mph N/A   Scattered Clouds
7:55 PM 19.4 °F 5.5 °F 12.2 °F 74% 29.98 in 10.0 mi NW 15.0 mph 20.7 mph N/A   Mostly Cloudy
8:15 PM 19.4 °F 7.9 °F 12.2 °F 74% 29.99 in 10.0 mi NNW 10.4 mph 16.1 mph N/A   Overcast
8:35 PM 17.6 °F 5.0 °F 12.2 °F 79% 30.00 in 10.0 mi NNW 11.5 mph 16.1 mph N/A   Mostly Cloudy
8:55 PM 17.6 °F 4.3 °F 12.2 °F 79% 30.00 in 10.0 mi NNW 12.7 mph 17.3 mph N/A   Scattered Clouds
9:15 PM 17.6 °F 5.0 °F 10.4 °F 73% 30.01 in 10.0 mi NNW 11.5 mph 19.6 mph N/A   Clear
9:35 PM 17.6 °F 5.0 °F 10.4 °F 73% 30.02 in 10.0 mi NW 11.5 mph 18.4 mph N/A   Clear
9:55 PM 17.6 °F 7.3 °F 10.4 °F 73% 30.03 in 10.0 mi NW 8.1 mph - N/A   Clear
10:15 PM 17.6 °F 8.2 °F 10.4 °F 73% 30.04 in 10.0 mi NW 6.9 mph - N/A   Clear
10:35 PM 17.6 °F 6.4 °F 10.4 °F 73% 30.05 in 10.0 mi NW 9.2 mph - N/A   Clear
10:55 PM 15.8 °F 5.1 °F 10.4 °F 79% 30.05 in 10.0 mi NW 8.1 mph - N/A   Clear
11:15 PM 15.8 °F 4.2 °F 10.4 °F 79% 30.05 in 10.0 mi NNW 9.2 mph - N/A   Clear
11:35 PM 15.8 °F 4.2 °F 10.4 °F 79% 30.05 in 10.0 mi NNW 9.2 mph - N/A   Clear
11:55 PM 15.8 °F 3.4 °F 8.6 °F 73% 30.05 in 10.0 mi NNW 10.4 mph - N/A   Clear